﻿_id,日時,平均風速(m/s),平均風向,最大瞬間風速(m/s),最大風速時風向,気温(℃),湿度(%),10分間移動積算雨量(mm),1時間移動積算雨量(mm),日雨量(mm),累計雨量(mm)
1,2023-10-09T00:00:00,0.8,西北西,1.6,西北西,15.1,"",0.5,1,6.5,6.5
2,2023-10-09T00:01:00,0.7,西北西,1.6,西北西,15.1,"",0.5,1,0,6.5
3,2023-10-09T00:02:00,0.7,西北西,1.6,西北西,15.2,"",0.5,1,0,6.5
4,2023-10-09T00:03:00,0.7,西北西,1.6,西北西,15.2,"",0.5,1,0,6.5
5,2023-10-09T00:04:00,0.6,西北西,1.6,西北西,15.1,"",0.5,1,0,6.5
6,2023-10-09T00:05:00,0.7,北西,1.6,西北西,15.1,"",0.5,1.5,0.5,7
7,2023-10-09T00:06:00,0.7,北西,2,西北西,15.1,"",0.5,1.5,0.5,7
8,2023-10-09T00:07:00,0.8,北西,2,西北西,15.1,"",0.5,1.5,0.5,7
9,2023-10-09T00:08:00,0.9,北西,2.1,西北西,15.2,"",0.5,1.5,0.5,7
10,2023-10-09T00:09:00,0.9,北西,2.1,西北西,15.1,"",0.5,1.5,0.5,7
11,2023-10-09T00:10:00,0.9,北西,2.1,西北西,15.1,"",0.5,1,0.5,7
12,2023-10-09T00:11:00,1,西北西,2.1,西北西,15.1,"",0.5,1,0.5,7
13,2023-10-09T00:12:00,1.1,西北西,2.1,西北西,15,"",0.5,1,0.5,7
14,2023-10-09T00:13:00,1.2,西北西,2.2,西,15.1,"",0.5,1,0.5,7
15,2023-10-09T00:14:00,1.4,西北西,2.4,西,15,"",0.5,1,0.5,7
16,2023-10-09T00:15:00,1.4,西北西,2.4,西,15,"",0,1,0.5,7
17,2023-10-09T00:16:00,1.4,西北西,2.4,西,15.1,"",0.5,1.5,1,7.5
18,2023-10-09T00:17:00,1.3,西北西,2.4,西,15.1,"",0.5,1.5,1,7.5
19,2023-10-09T00:18:00,1.2,西北西,2.4,西,15.1,"",0.5,1.5,1,7.5
20,2023-10-09T00:19:00,1.1,西北西,2.4,西,15,"",0.5,1.5,1,7.5
21,2023-10-09T00:20:00,1.1,西北西,2.4,西,15,"",0.5,1.5,1,7.5
22,2023-10-09T00:21:00,1.2,西北西,2.4,西,15,"",0.5,1.5,1,7.5
23,2023-10-09T00:22:00,1.2,西北西,2.4,西,15,"",0.5,1.5,1,7.5
24,2023-10-09T00:23:00,1.1,西北西,2.4,西,15,"",0.5,1.5,1,7.5
25,2023-10-09T00:24:00,1.1,西北西,2.3,西北西,15,"",0.5,1.5,1,7.5
26,2023-10-09T00:25:00,1,北西,2.3,西北西,15,"",0.5,1.5,1,7.5
27,2023-10-09T00:26:00,1.1,北西,2.3,西北西,15,"",0,1.5,1,7.5
28,2023-10-09T00:27:00,1.1,北西,2.3,西北西,15,"",0,1.5,1,7.5
29,2023-10-09T00:28:00,1.2,北西,2.3,西北西,15,"",0,1.5,1,7.5
30,2023-10-09T00:29:00,1.2,北西,2.4,西北西,14.9,"",0,1.5,1,7.5
31,2023-10-09T00:30:00,1.2,西北西,2.4,西北西,14.9,"",0,1.5,1,7.5
32,2023-10-09T00:31:00,1.2,西北西,2.4,西北西,14.9,"",0,1.5,1,7.5
33,2023-10-09T00:32:00,1.1,西北西,2.4,西北西,14.9,"",0,1.5,1,7.5
34,2023-10-09T00:33:00,1.2,西北西,2.4,西北西,14.9,"",0,1.5,1,7.5
35,2023-10-09T00:34:00,1.1,西北西,2.4,西北西,15,"",0,1.5,1,7.5
36,2023-10-09T00:35:00,1.1,西北西,2.4,西北西,15.1,"",0,1.5,1,7.5
37,2023-10-09T00:36:00,1.1,西北西,2.4,西北西,15,"",0,1.5,1,7.5
38,2023-10-09T00:37:00,1,西北西,2.4,西北西,15,"",0,1.5,1,7.5
39,2023-10-09T00:38:00,1,西北西,2.4,西北西,15,"",0,1.5,1,7.5
40,2023-10-09T00:39:00,0.9,北西,2.3,西北西,14.9,"",0,1.5,1,7.5
41,2023-10-09T00:40:00,0.8,北西,2.3,西北西,14.9,"",0,1.5,1,7.5
42,2023-10-09T00:41:00,0.9,北西,2.3,西北西,15,"",0,1.5,1,7.5
43,2023-10-09T00:42:00,0.9,北西,2.3,西北西,14.9,"",0,1.5,1,7.5
44,2023-10-09T00:43:00,0.8,北西,2.1,西北西,15,"",0,1.5,1,7.5
45,2023-10-09T00:44:00,0.8,北西,2.1,西北西,15,"",0,1.5,1,7.5
46,2023-10-09T00:45:00,0.8,北西,2.1,西北西,15,"",0,1.5,1,7.5
47,2023-10-09T00:46:00,0.9,北西,2.1,西北西,15,"",0,1.5,1,7.5
48,2023-10-09T00:47:00,0.9,北西,2.1,西北西,15,"",0.5,2,1.5,8
49,2023-10-09T00:48:00,0.9,西北西,2.1,西北西,15,"",0.5,2,1.5,8
50,2023-10-09T00:49:00,1,西北西,2.1,西北西,15,"",0.5,2,1.5,8
51,2023-10-09T00:50:00,1.1,西北西,2.1,西北西,15,"",0.5,2,1.5,8
52,2023-10-09T00:51:00,1.1,西北西,1.8,西北西,15,"",0.5,2,1.5,8
53,2023-10-09T00:52:00,1.1,西北西,1.8,西北西,15,"",0.5,2,1.5,8
54,2023-10-09T00:53:00,1.2,西北西,2.3,西北西,15,"",0.5,2,1.5,8
55,2023-10-09T00:54:00,1.2,西北西,2.3,西北西,15.1,"",0.5,2,1.5,8
56,2023-10-09T00:55:00,1.2,西北西,2.3,西北西,15,"",0.5,1.5,1.5,8
57,2023-10-09T00:56:00,1.2,西北西,2.3,西北西,15,"",0.5,1.5,1.5,8
58,2023-10-09T00:57:00,1.2,西北西,2.3,西北西,15,"",0,1.5,1.5,8
59,2023-10-09T00:58:00,1.2,西北西,2.3,西北西,15,"",0,1.5,1.5,8
60,2023-10-09T00:59:00,1.1,西北西,2.3,西北西,15,"",0,1.5,1.5,8
61,2023-10-09T01:00:00,1.2,西北西,2.3,西北西,15,"",0,1.5,1.5,8
62,2023-10-09T01:01:00,1.2,西,2.3,西北西,15,"",0,1.5,1.5,8
63,2023-10-09T01:02:00,1.2,西,2.3,西北西,15,"",0.5,2,2,8.5
64,2023-10-09T01:03:00,1.2,西,2.4,西,15,"",0.5,2,2,8.5
65,2023-10-09T01:04:00,1.2,西,2.4,西,15,"",0.5,2,2,8.5
66,2023-10-09T01:05:00,1.2,西,2.4,西,15,"",0.5,1.5,2,8.5
67,2023-10-09T01:06:00,1.2,西,2.4,西,15.1,"",0.5,1.5,2,8.5
68,2023-10-09T01:07:00,1.2,西,2.4,西,15,"",0.5,1.5,2,8.5
69,2023-10-09T01:08:00,1.2,西,2.4,西,15.1,"",0.5,1.5,2,8.5
70,2023-10-09T01:09:00,1.3,西,2.6,西北西,15.1,"",0.5,1.5,2,8.5
71,2023-10-09T01:10:00,1.2,西,2.9,西北西,15,"",0.5,1.5,2,8.5
72,2023-10-09T01:11:00,1.4,西北西,3.4,西北西,15,"",0.5,1.5,2,8.5
73,2023-10-09T01:12:00,1.5,西北西,3.4,西北西,14.9,"",0,1.5,2,8.5
74,2023-10-09T01:13:00,1.4,西北西,3.4,西北西,14.9,"",0,1.5,2,8.5
75,2023-10-09T01:14:00,1.3,西北西,3.4,西北西,14.9,"",0,1.5,2,8.5
76,2023-10-09T01:15:00,1.3,西北西,3.4,西北西,15,"",0,1.5,2,8.5
77,2023-10-09T01:16:00,1.5,西北西,3.4,西北西,15,"",0,1,2,8.5
78,2023-10-09T01:17:00,1.5,西北西,3.4,西北西,15,"",0,1,2,8.5
79,2023-10-09T01:18:00,1.5,西北西,3.4,西北西,15,"",0,1,2,8.5
80,2023-10-09T01:19:00,1.4,西北西,3.4,西北西,14.9,"",0,1,2,8.5
81,2023-10-09T01:20:00,1.4,西北西,3.4,西北西,15,"",0,1,2,8.5
82,2023-10-09T01:21:00,1.2,西北西,3.4,西北西,15,"",0,1,2,8.5
83,2023-10-09T01:22:00,1.1,西北西,2.9,北西,15,"",0,1,2,8.5
84,2023-10-09T01:23:00,1.1,北西,2.9,北西,15,"",0,1,2,8.5
85,2023-10-09T01:24:00,1,北西,2.9,北西,15,"",0,1,2,8.5
86,2023-10-09T01:25:00,0.9,北西,2.9,北西,15,"",0,1,2,8.5
87,2023-10-09T01:26:00,0.7,北西,2.1,西北西,15,"",0,1,2,8.5
88,2023-10-09T01:27:00,0.7,北西,2.1,西北西,15,"",0,1,2,8.5
89,2023-10-09T01:28:00,0.7,北西,2.1,西北西,15,"",0,1,2,8.5
90,2023-10-09T01:29:00,0.8,北西,2.1,西北西,15,"",0,1,2,8.5
91,2023-10-09T01:30:00,0.8,北西,2.1,西北西,15,"",0,1,2,8.5
92,2023-10-09T01:31:00,0.8,北西,1.9,西北西,15,"",0,1,2,8.5
93,2023-10-09T01:32:00,0.9,西北西,2,北西,15,"",0,1,2,8.5
94,2023-10-09T01:33:00,1,西北西,2,北西,15,"",0,1,2,8.5
95,2023-10-09T01:34:00,1.2,西北西,2.1,西北西,15,"",0,1,2,8.5
96,2023-10-09T01:35:00,1.3,西北西,2.1,西北西,15,"",0,1,2,8.5
97,2023-10-09T01:36:00,1.3,西北西,2.1,西北西,15,"",0,1,2,8.5
98,2023-10-09T01:37:00,1.3,西北西,2.1,西北西,15,"",0,1,2,8.5
99,2023-10-09T01:38:00,1.4,西北西,2.1,西北西,15,"",0,1,2,8.5
100,2023-10-09T01:39:00,1.4,西北西,2.6,北西,15,"",0.5,1.5,2.5,9
101,2023-10-09T01:40:00,1.5,西北西,2.8,西北西,15,"",0.5,1.5,2.5,9
102,2023-10-09T01:41:00,1.5,西北西,2.8,西北西,14.9,"",0.5,1.5,2.5,9
103,2023-10-09T01:42:00,1.5,西北西,2.8,西北西,15,"",0.5,1.5,2.5,9
104,2023-10-09T01:43:00,1.4,西北西,2.8,西北西,14.9,"",0.5,1.5,2.5,9
105,2023-10-09T01:44:00,1.4,西北西,2.8,西北西,14.9,"",0.5,1.5,2.5,9
106,2023-10-09T01:45:00,1.4,西北西,2.8,西北西,15,"",0.5,1.5,2.5,9
107,2023-10-09T01:46:00,1.5,西北西,2.8,西北西,14.9,"",0.5,1.5,2.5,9
108,2023-10-09T01:47:00,1.5,西北西,2.8,西北西,15,"",0.5,1,2.5,9
109,2023-10-09T01:48:00,1.4,西北西,2.8,西北西,15,"",0.5,1,2.5,9
110,2023-10-09T01:49:00,1.4,西北西,2.8,西北西,15,"",0,1,2.5,9
111,2023-10-09T01:50:00,1.3,西北西,2.6,西北西,14.9,"",0,1,2.5,9
112,2023-10-09T01:51:00,1.4,西北西,2.6,西北西,14.9,"",0,1,2.5,9
113,2023-10-09T01:52:00,1.3,西北西,2.6,西北西,14.9,"",0,1,2.5,9
114,2023-10-09T01:53:00,1.3,西北西,2.6,西北西,14.9,"",0,1,2.5,9
115,2023-10-09T01:54:00,1.3,西北西,2.6,西北西,14.9,"",0,1,2.5,9
116,2023-10-09T01:55:00,1.3,西北西,2.5,西北西,14.9,"",0,1,2.5,9
117,2023-10-09T01:56:00,1.2,西北西,2.5,西北西,14.9,"",0,1,2.5,9
118,2023-10-09T01:57:00,1.2,西北西,2.5,西北西,14.9,"",0,1,2.5,9
119,2023-10-09T01:58:00,1.2,西北西,2.5,西北西,14.9,"",0,1,2.5,9
120,2023-10-09T01:59:00,1.2,西北西,2.5,西北西,14.9,"",0,1,2.5,9
121,2023-10-09T02:00:00,1.3,西北西,2.5,西北西,15,"",0,1,2.5,9
122,2023-10-09T02:01:00,1.2,西北西,2.5,西北西,14.9,"",0,1,2.5,9
123,2023-10-09T02:02:00,1.3,西北西,2.9,西北西,14.9,"",0,0.5,2.5,9
124,2023-10-09T02:03:00,1.3,西北西,2.9,西北西,15,"",0,0.5,2.5,9
125,2023-10-09T02:04:00,1.3,西北西,2.9,西北西,15,"",0,0.5,2.5,9
126,2023-10-09T02:05:00,1.3,西北西,2.9,西北西,15,"",0,0.5,2.5,9
127,2023-10-09T02:06:00,1.4,西北西,2.9,西北西,14.9,"",0,0.5,2.5,9
128,2023-10-09T02:07:00,1.4,西北西,2.9,西北西,15,"",0,0.5,2.5,9
129,2023-10-09T02:08:00,1.4,西北西,2.9,西北西,14.9,"",0.5,1,3,9.5
130,2023-10-09T02:09:00,1.3,西北西,2.9,西北西,15,"",0.5,1,3,9.5
131,2023-10-09T02:10:00,1.2,西北西,2.9,西北西,14.9,"",0.5,1,3,9.5
132,2023-10-09T02:11:00,1.2,西北西,2.9,西北西,14.9,"",0.5,1,3,9.5
133,2023-10-09T02:12:00,1.1,西北西,2.7,西北西,14.9,"",1,1.5,3.5,10
134,2023-10-09T02:13:00,1,西北西,2.7,西北西,14.9,"",1,1.5,3.5,10
135,2023-10-09T02:14:00,1,西北西,2.7,西北西,14.9,"",1,1.5,3.5,10
136,2023-10-09T02:15:00,1,西北西,2.7,西北西,14.9,"",1,1.5,3.5,10
137,2023-10-09T02:16:00,1,西北西,2,北西,15,"",1,1.5,3.5,10
138,2023-10-09T02:17:00,0.9,西北西,2,北西,14.9,"",1,1.5,3.5,10
139,2023-10-09T02:18:00,0.9,西北西,2,北西,14.9,"",0.5,1.5,3.5,10
140,2023-10-09T02:19:00,0.9,西北西,2,北西,14.9,"",0.5,1.5,3.5,10
141,2023-10-09T02:20:00,0.9,西北西,2,北西,14.9,"",0.5,1.5,3.5,10
142,2023-10-09T02:21:00,0.9,西北西,1.8,西北西,14.9,"",0.5,1.5,3.5,10
143,2023-10-09T02:22:00,1,西北西,2.2,西北西,14.9,"",0,1.5,3.5,10
144,2023-10-09T02:23:00,1.1,西北西,2.3,北西,14.8,"",0,1.5,3.5,10
145,2023-10-09T02:24:00,1.2,西北西,2.5,北西,14.8,"",0,1.5,3.5,10
146,2023-10-09T02:25:00,1.2,西北西,2.5,北西,14.9,"",0,1.5,3.5,10
147,2023-10-09T02:26:00,1.3,西北西,2.5,北西,14.8,"",0,1.5,3.5,10
148,2023-10-09T02:27:00,1.3,西北西,2.5,北西,14.9,"",0,1.5,3.5,10
149,2023-10-09T02:28:00,1.4,西北西,2.7,西北西,14.9,"",0,1.5,3.5,10
150,2023-10-09T02:29:00,1.5,西北西,3,西北西,14.9,"",0,1.5,3.5,10
151,2023-10-09T02:30:00,1.6,西北西,3,西北西,14.8,"",0,1.5,3.5,10
152,2023-10-09T02:31:00,1.6,西北西,3,西北西,14.8,"",0,1.5,3.5,10
153,2023-10-09T02:32:00,1.5,西北西,3,西北西,14.9,"",0,1.5,3.5,10
154,2023-10-09T02:33:00,1.5,西北西,3,西北西,14.9,"",0,1.5,3.5,10
155,2023-10-09T02:34:00,1.3,西北西,3,西北西,14.8,"",0.5,2,4,10.5
156,2023-10-09T02:35:00,1.3,西北西,3,西北西,14.8,"",0.5,2,4,10.5
157,2023-10-09T02:36:00,1.2,西北西,3,西北西,14.8,"",0.5,2,4,10.5
158,2023-10-09T02:37:00,1.1,西北西,3,西北西,14.8,"",0.5,2,4,10.5
159,2023-10-09T02:38:00,1.1,西北西,3,西北西,14.9,"",0.5,2,4,10.5
160,2023-10-09T02:39:00,1,西北西,2.2,西北西,14.9,"",0.5,1.5,4,10.5
161,2023-10-09T02:40:00,0.9,西北西,2.2,西北西,14.9,"",0.5,1.5,4,10.5
162,2023-10-09T02:41:00,0.9,西北西,2.2,西北西,14.9,"",0.5,1.5,4,10.5
163,2023-10-09T02:42:00,1,西北西,2.2,西北西,14.8,"",0.5,1.5,4,10.5
164,2023-10-09T02:43:00,1,西北西,2.2,西北西,14.8,"",0.5,1.5,4,10.5
165,2023-10-09T02:44:00,1.1,西北西,2.2,西北西,14.8,"",0,1.5,4,10.5
166,2023-10-09T02:45:00,1,西北西,2.2,西北西,14.8,"",0,1.5,4,10.5
167,2023-10-09T02:46:00,1.1,西北西,2.2,西北西,14.8,"",0,1.5,4,10.5
168,2023-10-09T02:47:00,1.1,西北西,2.2,西北西,14.8,"",0,1.5,4,10.5
169,2023-10-09T02:48:00,1,西北西,2.2,西北西,14.9,"",0,1.5,4,10.5
170,2023-10-09T02:49:00,1,西北西,2.2,西北西,14.8,"",0,1.5,4,10.5
171,2023-10-09T02:50:00,1,西北西,2.2,西北西,14.8,"",0,1.5,4,10.5
172,2023-10-09T02:51:00,0.9,西北西,2.2,西北西,14.8,"",0,1.5,4,10.5
173,2023-10-09T02:52:00,0.9,北西,2.2,西北西,14.8,"",0,1.5,4,10.5
174,2023-10-09T02:53:00,0.9,北西,2.2,西北西,14.8,"",0,1.5,4,10.5
175,2023-10-09T02:54:00,0.8,北西,1.7,西北西,14.8,"",0,1.5,4,10.5
176,2023-10-09T02:55:00,0.8,北西,1.7,西北西,14.8,"",0.5,2,4.5,11
177,2023-10-09T02:56:00,0.8,北西,1.8,西,14.8,"",0.5,2,4.5,11
178,2023-10-09T02:57:00,0.8,北西,1.8,西,14.8,"",0.5,2,4.5,11
179,2023-10-09T02:58:00,0.9,北西,1.8,西,14.8,"",0.5,2,4.5,11
180,2023-10-09T02:59:00,0.9,西北西,1.9,西,14.8,"",0.5,2,4.5,11
181,2023-10-09T03:00:00,1,西北西,1.9,西,14.8,"",0.5,2,4.5,11
182,2023-10-09T03:01:00,1.1,西北西,1.9,西,14.9,"",1,2.5,5,11.5
183,2023-10-09T03:02:00,1.1,西北西,1.9,西,14.8,"",1,2.5,5,11.5
184,2023-10-09T03:03:00,1.2,西,1.9,西,14.8,"",1,2.5,5,11.5
185,2023-10-09T03:04:00,1.3,西,1.9,西,14.8,"",1,2.5,5,11.5
186,2023-10-09T03:05:00,1.3,西,1.9,西,14.7,"",0.5,2.5,5,11.5
187,2023-10-09T03:06:00,1.2,西,1.9,西,14.7,"",0.5,2.5,5,11.5
188,2023-10-09T03:07:00,1.2,西,1.9,西,14.7,"",0.5,2.5,5,11.5
189,2023-10-09T03:08:00,1.2,西,1.9,西,14.7,"",0.5,2,5,11.5
190,2023-10-09T03:09:00,1.2,西北西,1.9,西,14.7,"",0.5,2,5,11.5
191,2023-10-09T03:10:00,1.2,西北西,1.9,西,14.8,"",0.5,2,5,11.5
192,2023-10-09T03:11:00,1.2,西北西,1.9,西,14.7,"",0.5,2.5,5.5,12
193,2023-10-09T03:12:00,1.2,西北西,2.3,北西,14.7,"",0.5,2,5.5,12
194,2023-10-09T03:13:00,1.2,西北西,2.3,北西,14.7,"",0.5,2,5.5,12
195,2023-10-09T03:14:00,1.2,西北西,2.3,北西,14.7,"",0.5,2,5.5,12
196,2023-10-09T03:15:00,1.2,西北西,2.4,西北西,14.7,"",0.5,2,5.5,12
197,2023-10-09T03:16:00,1.2,西北西,2.4,西北西,14.7,"",0.5,2,5.5,12
198,2023-10-09T03:17:00,1.2,西北西,2.4,西北西,14.8,"",0.5,2,5.5,12
199,2023-10-09T03:18:00,1.3,西北西,2.4,西北西,14.7,"",0.5,2,5.5,12
200,2023-10-09T03:19:00,1.3,西北西,2.4,西北西,14.7,"",0.5,2,5.5,12
201,2023-10-09T03:20:00,1.3,西北西,2.4,西北西,14.7,"",0.5,2,5.5,12
202,2023-10-09T03:21:00,1.3,西北西,2.4,西北西,14.7,"",0,2,5.5,12
203,2023-10-09T03:22:00,1.3,西北西,2.4,西北西,14.7,"",0,2,5.5,12
204,2023-10-09T03:23:00,1.2,西北西,2.4,西北西,14.7,"",0,2,5.5,12
205,2023-10-09T03:24:00,1.2,西北西,2.4,西北西,14.8,"",0,2,5.5,12
206,2023-10-09T03:25:00,1.1,西北西,2.4,西,14.8,"",0,2,5.5,12
207,2023-10-09T03:26:00,1.1,西北西,2.4,西,14.8,"",0,2,5.5,12
208,2023-10-09T03:27:00,1.2,西北西,2.4,西,14.8,"",0,2,5.5,12
209,2023-10-09T03:28:00,1.1,西北西,2.1,西,14.8,"",0,2,5.5,12
210,2023-10-09T03:29:00,1.1,西北西,2.2,西,14.7,"",0,2,5.5,12
211,2023-10-09T03:30:00,1.2,西,2.2,西,14.8,"",0,2,5.5,12
212,2023-10-09T03:31:00,1.2,西,2.2,西,14.7,"",0,2,5.5,12
213,2023-10-09T03:32:00,1.3,西,2.2,西,14.8,"",0,2,5.5,12
214,2023-10-09T03:33:00,1.3,西北西,2.2,西,14.8,"",0,2,5.5,12
215,2023-10-09T03:34:00,1.3,西北西,2.2,西,14.7,"",0,1.5,5.5,12
216,2023-10-09T03:35:00,1.3,西北西,2.2,西,14.7,"",0,1.5,5.5,12
217,2023-10-09T03:36:00,1.2,西北西,2.2,西,14.8,"",0,1.5,5.5,12
218,2023-10-09T03:37:00,1.1,西北西,2.2,西,14.9,"",0,1.5,5.5,12
219,2023-10-09T03:38:00,1,西北西,2.2,西,14.8,"",0,1.5,5.5,12
220,2023-10-09T03:39:00,0.9,西北西,2.2,西北西,14.7,"",0,1.5,5.5,12
221,2023-10-09T03:40:00,0.9,西北西,2.2,西北西,14.7,"",0,1.5,5.5,12
222,2023-10-09T03:41:00,0.9,西北西,2.1,北西,14.8,"",0.5,2,6,12.5
223,2023-10-09T03:42:00,0.8,西北西,1.8,西北西,14.7,"",0.5,2,6,12.5
224,2023-10-09T03:43:00,0.8,西北西,1.8,西北西,14.7,"",0.5,2,6,12.5
225,2023-10-09T03:44:00,0.8,西北西,1.8,西北西,14.7,"",0.5,2,6,12.5
226,2023-10-09T03:45:00,0.8,西,1.8,西北西,14.7,"",0.5,2,6,12.5
227,2023-10-09T03:46:00,1,西,1.8,西北西,14.7,"",0.5,2,6,12.5
228,2023-10-09T03:47:00,1,西,1.8,西北西,14.8,"",0.5,2,6,12.5
229,2023-10-09T03:48:00,1.1,西,1.8,西北西,14.8,"",0.5,2,6,12.5
230,2023-10-09T03:49:00,1.1,西,1.8,西北西,14.7,"",1,2.5,6.5,13
231,2023-10-09T03:50:00,1,西,1.8,西北西,14.7,"",1,2.5,6.5,13
232,2023-10-09T03:51:00,1,西,1.8,西北西,14.7,"",0.5,2.5,6.5,13
233,2023-10-09T03:52:00,1,西,1.8,西北西,14.6,"",0.5,2.5,6.5,13
234,2023-10-09T03:53:00,0.9,西,1.8,西北西,14.7,"",0.5,2.5,6.5,13
235,2023-10-09T03:54:00,0.9,西北西,1.8,西北西,14.6,"",0.5,2.5,6.5,13
236,2023-10-09T03:55:00,0.9,西北西,1.8,西北西,14.7,"",0.5,2,6.5,13
237,2023-10-09T03:56:00,0.9,西北西,1.7,西北西,14.7,"",0.5,2,6.5,13
238,2023-10-09T03:57:00,0.8,西北西,1.7,西北西,14.6,"",0.5,2,6.5,13
239,2023-10-09T03:58:00,0.8,西北西,1.7,西北西,14.7,"",0.5,2,6.5,13
240,2023-10-09T03:59:00,0.9,西北西,1.7,西北西,14.7,"",0,2,6.5,13
241,2023-10-09T04:00:00,0.9,西北西,1.7,西,14.7,"",0,2,6.5,13
242,2023-10-09T04:01:00,0.9,西北西,1.8,西,14.7,"",0.5,2,7,13.5
243,2023-10-09T04:02:00,1,西北西,1.8,西,14.7,"",0.5,2,7,13.5
244,2023-10-09T04:03:00,0.9,西北西,1.8,西,14.7,"",0.5,2,7,13.5
245,2023-10-09T04:04:00,0.9,西北西,1.8,西,14.7,"",0.5,2,7,13.5
246,2023-10-09T04:05:00,0.9,西北西,1.8,西,14.6,"",0.5,2,7,13.5
247,2023-10-09T04:06:00,0.8,西,1.8,西,14.5,"",0.5,2,7,13.5
248,2023-10-09T04:07:00,0.7,西北西,1.8,西,14.6,"",0.5,2,7,13.5
249,2023-10-09T04:08:00,0.6,西北西,1.8,西,14.6,"",0.5,2,7,13.5
250,2023-10-09T04:09:00,0.5,西北西,1.8,西,14.6,"",0.5,2,7,13.5
